User: anonymous   Login
Location: Long Geng
(2.6167°N, 114.1333°E)
Time: 16:35:06
(UTC+00:00)
Language:

BLOCK DM-SL R/B - Orbit

View from above orbital plane
View from above orbital plane
View from above satellite
View from above satellite

Ground track
Ground track

The orbit data is extracted from the following two-line orbital elements,

1 33208U 08035B   21210.82778035 -.00000045  00000-0  69681-3 0  9991
2 33208   0.1604 129.9515 7122727 234.1650 258.6464  2.26228769107771
Epoch (UTC): 29 July 2021 19:52:00
Eccentricity: 0.7122727
inclination: 0.1604°
perigee height: 674 km
apogee height: 35592 km
right ascension of ascending node: 129.9515°
argument of perigee: 234.1650°
revolutions per day: 2.26228769
mean anomaly at epoch: 258.6464°
orbit number at epoch: 10777

The dashed part of the orbit path shows where the satellite is in the earth's shadow,  

DLR